Weather History for St. Petersburg Airport, FL

Change the Weather History Date:

Monday, November 28, 2011

  Actual Average Record
Temperature  
Mean Temperature 68 °F -  
Max Temperature 73 °F 76 °F 86 °F (1958)
Min Temperature 61 °F 62 °F 38 °F (1956)
Cooling Degree Days 2    
Growing Degree Days 18 (Base 50)    
Moisture  
Dew Point 62 °F    
Average Humidity 88    
Maximum Humidity 94    
Minimum Humidity 63    
Precipitation  
Precipitation 0.77 in - - ()
Sea Level Pressure  
Sea Level Pressure 29.92 in    
Wind  
Wind Speed 11 mph (WNW)    
Max Wind Speed 26 mph    
Max Gust Speed 30 mph    
Visibility 6 miles    
Events Rain    
Averages and records for this station are not official NWS values.
T = Trace of Precipitation, MM = Missing Value Source: NWS Daily Summary

Daily Weather History Graph

Daily Weather History Graph

Search for Another Location

Airport:

Trip Planner

Search our weather history database for the weather conditions in past years. The results will help you decide how hot, cold, wet, or windy it might be!

Date:

Astronomy

Nov. 28, 2011 Rise Set
Actual Time 7:02 AM EST 5:35 PM EST
Civil Twilight 6:36 AM EST 6:00 PM EST
Nautical Twilight 6:08 AM EST 6:29 PM EST
Astronomical Twilight 5:39 AM EST 6:57 PM EST
Moon 10:13 AM EST (11/28) 9:16 PM EST (11/28)
Length of Visible Light 11h 23m
Length of Day
10h 32m
Waxing Crescent, 15% of the Moon is Illuminated
Nov 28
Waxing Crescent
Dec 2
First Quarter
Dec 10
Full
Dec 17
Last Quarter
Dec 24
New

Hourly Weather History & Observations

Time (EST) Temp. Dew Point Humidity Pressure Visibility Wind Dir Wind Speed Gust Speed Precip Events Conditions
12:53 AM 69.1 °F 64.0 °F 84% 29.95 in 10.0 mi SE 10.4 mph - N/A   Clear
1:53 AM 68.0 °F 64.0 °F 87% 29.94 in 10.0 mi SSE 8.1 mph - N/A   Clear
2:53 AM 68.0 °F 64.0 °F 87% 29.91 in 10.0 mi SSE 11.5 mph - N/A   Scattered Clouds
3:53 AM 66.9 °F 64.0 °F 90% 29.90 in 10.0 mi SE 9.2 mph - N/A   Clear
4:53 AM 66.9 °F 64.0 °F 90% 29.88 in 10.0 mi SE 11.5 mph - N/A   Mostly Cloudy
5:53 AM 68.0 °F 64.0 °F 87% 29.88 in 10.0 mi SSE 12.7 mph - N/A   Overcast
6:53 AM 68.0 °F 64.0 °F 87% 29.88 in 10.0 mi SSE 13.8 mph - N/A   Scattered Clouds
7:53 AM 70.0 °F 64.9 °F 84% 29.89 in 10.0 mi SSE 17.3 mph 21.9 mph N/A   Overcast
8:53 AM 72.0 °F 64.9 °F 78% 29.90 in 10.0 mi SSE 13.8 mph 21.9 mph N/A   Overcast
9:53 AM 73.0 °F 64.9 °F 76% 29.91 in 10.0 mi SSE 11.5 mph - N/A   Overcast
10:29 AM 71.6 °F 64.4 °F 78% 29.91 in 2.0 mi WNW 26.5 mph 29.9 mph 0.03 in Rain Heavy Rain
10:42 AM 68.0 °F 64.4 °F 88% 29.92 in 2.0 mi WNW 8.1 mph 21.9 mph 0.14 in Rain Rain
10:53 AM 68.0 °F 66.0 °F 93% 29.92 in 2.0 mi NW 6.9 mph - 0.18 in Rain Rain
11:44 AM 68.0 °F 66.2 °F 94% 29.91 in 2.0 mi WNW 6.9 mph - 0.07 in Rain Rain
11:53 AM 66.9 °F 64.9 °F 93% 29.91 in 2.0 mi NW 12.7 mph 17.3 mph 0.08 in Rain Light Rain
12:18 PM 66.2 °F 64.4 °F 94% 29.91 in 2.0 mi NW 12.7 mph 20.7 mph 0.05 in Rain Rain
12:28 PM 66.2 °F 64.4 °F 94% 29.91 in 2.0 mi WNW 15.0 mph 21.9 mph N/A Rain Rain
12:53 PM 66.0 °F 63.0 °F 90% 29.91 in 2.0 mi NW 13.8 mph - 0.15 in Rain Rain
1:51 PM 64.4 °F 62.6 °F 94% 29.90 in 2.0 mi NW 18.4 mph 21.9 mph 0.16 in Rain Light Rain
1:53 PM 64.0 °F 62.1 °F 93% 29.91 in 2.0 mi NW 13.8 mph 21.9 mph 0.16 in Rain Rain
2:22 PM 64.4 °F 60.8 °F 88% 29.90 in 2.0 mi NW 11.5 mph - 0.06 in Rain Rain
2:26 PM 64.4 °F 60.8 °F 88% 29.91 in 2.0 mi NW 12.7 mph - 0.06 in Rain Rain
2:33 PM 64.4 °F 60.8 °F 88% 29.91 in 2.0 mi NW 11.5 mph - 0.07 in Rain Rain
2:53 PM 63.0 °F 61.0 °F 93% 29.91 in 2.0 mi NW 13.8 mph - 0.09 in Rain Light Rain
3:00 PM 64.4 °F 60.8 °F 88% 29.91 in 6.0 mi NW 9.2 mph - 0.01 in Rain Rain
3:08 PM 64.4 °F 60.8 °F 88% 29.91 in 4.0 mi NW 9.2 mph - 0.03 in Rain Rain
3:12 PM 64.4 °F 60.8 °F 88% 29.91 in 3.0 mi WNW 9.2 mph - 0.04 in Rain Rain
3:24 PM 64.4 °F 60.8 °F 88% 29.91 in 3.0 mi WNW 9.2 mph - 0.06 in Rain Rain
3:32 PM 62.6 °F 60.8 °F 94% 29.92 in 2.5 mi NW 12.7 mph - 0.07 in Rain Light Rain
3:37 PM 62.6 °F 60.8 °F 94% 29.92 in 4.0 mi WNW 9.2 mph - 0.07 in Rain Light Rain
3:53 PM 63.0 °F 61.0 °F 93% 29.92 in 6.0 mi WNW 10.4 mph 20.7 mph 0.08 in Rain Light Rain
4:02 PM 62.6 °F 60.8 °F 94% 29.92 in 3.0 mi NW 11.5 mph - 0.00 in Rain Light Rain
4:53 PM 62.1 °F 60.1 °F 93% 29.94 in 3.0 mi WNW 11.5 mph - 0.02 in Rain Light Rain
5:53 PM 62.1 °F 59.0 °F 90% 29.94 in 10.0 mi WNW 8.1 mph - 0.01 in   Overcast
6:00 PM 62.6 °F 59.0 °F 88% 29.94 in 10.0 mi WNW 8.1 mph - N/A   Overcast
6:09 PM 62.6 °F 59.0 °F 88% 29.94 in 10.0 mi WNW 6.9 mph - N/A   Overcast
6:53 PM 63.0 °F 59.0 °F 87% 29.94 in 10.0 mi NW 5.8 mph - N/A   Overcast
7:53 PM 63.0 °F 59.0 °F 87% 29.95 in 10.0 mi WNW 3.5 mph - N/A   Overcast
8:53 PM 63.0 °F 59.0 °F 87% 29.96 in 10.0 mi Calm Calm - N/A   Overcast
9:53 PM 63.0 °F 59.0 °F 87% 29.96 in 10.0 mi West 3.5 mph - N/A   Overcast
10:53 PM 64.0 °F 51.1 °F 63% 29.97 in 10.0 mi West 10.4 mph - N/A   Overcast
11:53 PM 61.0 °F 50.0 °F 67% 29.96 in 10.0 mi WSW 4.6 mph - N/A   Clear